Location: Betra
(48.4113°N, 8.6634°E)
Time: 20:59:29
(UTC+00:00)

Cosmos 1408 - Pass Details

Date: 23 May 2024
Orbit: 361 x 375 km, 82.6° (Epoch: 24 June)

Event Time Altitude Azimuth Distance (km) Brightness Sun altitude
Rises 23:55:48 0° 89° (E) 2,201 6.0 -20.5°
Enters shadow 00:51:59 -70° 193° (SSW) 12,409 9.7 -18.1°
Maximum altitude 01:28:37 42° 95° (E) 535 2.9 -15.4°
